Content
SEND FEEDBACK

Daily
Averages
Monthly
Summary
Germany

HOCHSPEYER, GERMANY


Home > Europe > Germany
Elevation: 1053 feet     Latitude: 49 30N     Longitude: 007 52E

WEATHER
 
SELECT A DAY
Number of Records: 387,902;   Date Range: 7/3/96 - 9/29/14
 
SHARE

PRINT THIS DATA

[ ← Previous Day ]
WEATHER ALMANAC - JULY 12, 2014
[ Next Day → ]
[ °C ]   °F
Weather ElementAverageHighLow
Temperature62.7 °F70 °F (3:58 am)58.8 °F (7:58 pm)
Dewpoint61.2 °F63.3 °F (12:58 pm)58.5 °F (1:58 am)
Humidity95.1 %100 % (5:28 am)76 % (10:58 am)
Barometer29.94 in29.94 in (5:58 pm)29.91 in (10:17 am)
Wind Speed4.2 mph10.4 mph (4:51 am)
Weather ElementAverage
Visibility6 mi
Wind DirectionWSW (234.3 °)

Weather ElementTotal
Precipitation0.03 in
Heating Degree Days0.6 (Base 65)
Growing Degree Days14.4 (Base 50)
Averaged from 58 records on July 12, 2014
WEATHER CONDITIONS BREAKOUT
WIND DIRECTION BREAKOUT
WEATHER BY HOUR - JULY 12, 2014
[ °C ]   °F
Local TimeTemperatureDewpointHumidityBarometerVisibilityWind DirectionWind SpeedGust SpeedPrecipitationEventsConditions
12:58 AM60.3 °F59.4 °F97 %29.93 in6.2 miWSW (250°)3.5 mphClear
1:41 AM59.0 °F59.0 °F100 %29.94 in6.2 miSW (220°)2.3 mphRainLight Rain
1:58 AM59.4 °F58.8 °F98 %29.93 in6.2 miWNW (300°)2.3 mph0.00 inRainLight Rain
2:06 AM59.0 °F59.0 °F100 %29.94 in6.2 miWest (260°)3.5 mphPartly Cloudy
2:10 AM59.0 °F59.0 °F100 %29.94 in6.2 miVariable1.2 mphLight Drizzle
2:14 AM59.0 °F59.0 °F100 %29.94 in6.2 miEast (90°)4.6 mphLight Drizzle
2:21 AM59.0 °F59.0 °F100 %29.94 in6.2 miCalmScattered Clouds
2:58 AM59.0 °F58.5 °F98 %29.93 in6.2 miWest (260°)4.6 mph0.01 inPartly Cloudy
3:30 AM59.0 °F59.0 °F100 %29.94 in6.2 miWSW (250°)2.3 mphPartly Cloudy
3:58 AM58.8 °F58.5 °F99 %29.93 in6.2 miWest (260°)2.3 mphPartly Cloudy
4:21 AM59.0 °F59.0 °F100 %29.94 in6.2 miWest (270°)5.8 mphMostly Cloudy
4:58 AM60.1 °F59.7 °F99 %29.93 in6.2 miWest (260°)4.6 mphMostly Cloudy
5:47 AM60.8 °F60.8 °F100 %29.94 in5.6 miWest (280°)3.5 mphOvercast
5:58 AM60.6 °F60.3 °F99 %29.93 in5.6 miWest (280°)5.8 mphOvercast
6:04 AM60.8 °F60.8 °F100 %29.94 in5.6 miWest (280°)4.6 mphOvercast
6:21 AM60.8 °F60.8 °F100 %29.94 in6.2 miWest (270°)4.6 mphOvercast
6:28 AM60.8 °F60.8 °F100 %29.94 in6.2 miWSW (250°)4.6 mphOvercast
6:58 AM61.2 °F60.8 °F99 %29.94 in6.2 miWSW (240°)3.5 mphMostly Cloudy
7:29 AM60.8 °F60.8 °F100 %29.94 in6.2 miWSW (250°)4.6 mphOvercast
7:58 AM61.5 °F61.2 °F99 %29.94 in6.2 miWest (270°)4.6 mphOvercast
8:06 AM60.8 °F60.8 °F100 %29.94 in6.2 miWest (270°)4.6 mphLight Drizzle
8:08 AM60.8 °F60.8 °F100 %29.94 in6.2 miWest (270°)4.6 mphRainLight Rain
8:17 AM60.8 °F60.8 °F100 %29.94 in5.0 miWest (260°)3.5 mphRainLight Rain
8:37 AM62.6 °F60.8 °F94 %29.94 in3.7 miWSW (250°)4.6 mphRainLight Rain
8:44 AM62.6 °F60.8 °F94 %29.94 in5.0 miWSW (250°)4.6 mphLight Drizzle
8:46 AM62.6 °F60.8 °F94 %29.94 in5.6 miWest (260°)3.5 mphOvercast
8:48 AM62.6 °F60.8 °F94 %29.94 in5.6 miWest (260°)3.5 mphOvercast
8:51 AM62.6 °F60.8 °F94 %29.94 in5.6 miWest (260°)4.6 mphOvercast
8:53 AM62.6 °F60.8 °F94 %29.94 in5.6 miWSW (250°)4.6 mphOvercast
8:58 AM61.9 °F61.5 °F99 %29.94 in5.6 miWSW (250°)5.8 mph0.01 inOvercast
9:11 AM62.6 °F62.6 °F100 %29.94 in5.6 miSW (230°)4.6 mphOvercast
9:21 AM62.6 °F62.6 °F100 %29.94 in5.6 miSW (220°)3.5 mphOvercast
9:31 AM62.6 °F62.6 °F100 %29.94 in5.6 miSW (230°)2.3 mphOvercast
9:44 AM62.6 °F62.6 °F100 %29.94 in6.2 miWest (270°)3.5 mphOvercast
9:58 AM62.4 °F61.7 °F97 %29.94 in6.2 miWest (270°)3.5 mphOvercast
10:03 AM62.6 °F60.8 °F94 %29.94 in6.2 miWest (260°)3.5 mphOvercast
10:04 AM62.6 °F60.8 °F94 %29.94 in6.2 miWest (260°)3.5 mphOvercast
10:22 AM62.6 °F60.8 °F94 %29.94 in6.2 miWSW (250°)4.6 mphOvercast
10:32 AM62.6 °F62.6 °F100 %29.94 in6.2 miWest (260°)4.6 mphMostly Cloudy
10:55 AM64.4 °F62.6 °F94 %29.94 in6.2 miSW (230°)4.6 mphOvercast
10:57 AM64.4 °F62.6 °F94 %29.94 in6.2 miWSW (240°)3.5 mphMostly Cloudy
10:58 AM63.7 °F62.2 °F95 %29.94 in6.2 miWSW (240°)3.5 mph0.01 inMostly Cloudy
11:09 AM64.4 °F62.6 °F94 %29.94 in5.6 miWSW (240°)3.5 mphMostly Cloudy
11:10 AM64.4 °F62.6 °F94 %29.94 in5.6 miWSW (250°)4.6 mphMostly Cloudy
11:11 AM64.4 °F62.6 °F94 %29.94 in5.6 miWSW (240°)3.5 mphMostly Cloudy
11:12 AM64.4 °F62.6 °F94 %29.94 in5.6 miSW (230°)3.5 mphMostly Cloudy
11:15 AM64.4 °F62.6 °F94 %29.94 in5.6 miSW (230°)3.5 mphMostly Cloudy
11:20 AM64.4 °F62.6 °F94 %29.94 in6.2 miSW (230°)3.5 mphMostly Cloudy
11:28 AM64.4 °F62.6 °F94 %29.94 in6.2 miSW (230°)4.6 mphMostly Cloudy
11:43 AM64.4 °F62.6 °F94 %29.93 in6.2 miSSW (210°)3.5 mphScattered Clouds
11:58 AM65.8 °F62.6 °F89 %29.93 in6.2 miSW (220°)3.5 mphPartly Cloudy
12:58 PM70.0 °F63.3 °F79 %29.91 in6.2 miWSW (250°)6.9 mphScattered Clouds
1:56 PM69.8 °F62.6 °F78 %29.92 in6.2 miWest (270°)10.4 mphLight Drizzle
1:57 PM69.8 °F62.6 °F78 %29.92 in6.2 miWSW (250°)10.4 mphLight Drizzle
1:58 PM70.0 °F62.1 °F76 %29.91 in6.2 miWSW (250°)9.2 mphLight Drizzle
2:08 PM68.0 °F62.6 °F83 %29.91 in6.2 miSSW (210°)4.6 mphMostly Cloudy
2:21 PM68.0 °F62.6 °F83 %29.91 in6.2 miSSW (200°)4.6 mphRainLight Rain
2:35 PM68.0 °F62.6 °F83 %29.91 in6.2 miVariable3.5 mphScattered Clouds
Hourly data recorded from ETAR, located miles away from Hochspeyer, Germany







STORIES FROM OUR PARTNERS